Regional Weather Roundup
Issued by NWS Wakefield, VA

Home | Current Version | Previous Version | Graphics & Text | Print | Product List | Glossary On
Versions: 1 2 3 4 5 6 7 8 9 10 11 12 13 14 15 16 17 18 19 20 21 22 23 24 25 26 27 28 29 30 31 32 33 34 35 36 37 38 39 40 41 42 43 44 45 46 47 48 49 50
487
ASUS41 KAKQ 261515
RWRAKQ

REGIONAL WEATHER ROUNDUP
NATIONAL WEATHER SERVICE WAKEFIELD VA
1100 AM EDT TUE JUL 26 2016

Note: "fair" indicates few or no clouds below 12,000 feet with no
significant weather and/or obstructions to visibility. * = Denotes
station may not report precipitation (e.g., rain,snow,etc.),
thunder or fog.

VAZ042-051-052>054-056-261600-
NORTHERN VIRGINIA

CITY           SKY/WX    TMP DP  RH WIND       PRES   REMARKS
WASH NATIONAL  CLOUDY    91  73  55 N7        29.97S HX  99
DULLES         PTSUNNY   87  70  56 NW9       29.98S
FORT BELVOIR   FAIR      89  72  57 N7        29.97R HX  96
QUANTICO       PTSUNNY   90  72  55 NW7       29.97  HX  97
FREDERICKSBRG* FAIR      90  74  59 N7        29.96S HX  99
STAFFORD*      FAIR      90  71  53 N7        30.02R HX  96
WARRENTON      FAIR      90  69  48 N7        29.99S
CULPEPER*      FAIR      88  76  67 CALM      29.99S HX  98
MANASSAS*      MOSUNNY   90  72  55 N7        29.98S HX  96
LEESBURG*      FAIR      88  75  66 NW12G18   30.00S HX  97
WINCHESTER     FAIR      84  72  65 W7        30.01S
FRONT ROYAL*   FAIR      86  72  62 CALM      30.00S
LURAY*         FAIR      86  73  66 CALM      30.02S
$$

VAZ048-049-060>072-079>083-261600-
CENTRAL AND SOUTH CENTRAL VIRGINIA

CITY           SKY/WX    TMP DP  RH WIND       PRES   REMARKS
RICHMOND       PTSUNNY   90  75  61 NE8       29.97S HX 100
CHESTERFIELD*  FAIR      93  66  40 CALM      29.99S HX  96
PETERSBURG*    FAIR      91  75  60 CALM      29.98S HX 102
HANOVER        FAIR      91  72  53 VRB5      29.99S HX  98
TAPPAHANNOCK*  FAIR      91  69  48 N6        29.97S HX  96
QUINTON*       FAIR      89  76  66 N3        29.96S HX  99
CHARLOTTSVILLE FAIR      92  73  53 NW6       29.99S HX 100
GORDONSVILLE*  FAIR      91  75  59 E3        29.99S HX 100
ORANGE*          N/A     90  73  58 CALM      30.01S HX  98
LOUISA*        FAIR      93  79  62 NE3       29.98S HX 110
BUMPASS*       FAIR      89  76  64 CALM      29.99R HX 100
FARMVILLE*     FAIR      91  72  52 CALM      29.98S HX  98
CREWE*         FAIR      90  76  63 CALM      29.98S HX 102
FORT PICKETT*  FAIR      89  77  67 E5        29.99S HX 102
CHASE CITY*    FAIR      88  76  67 CALM      30.00S HX  99
CLARKSVILLE*   FAIR      88  77  70 SW6       29.99S HX 100
SOUTH HILL*    FAIR      89  77  67 SW3       30.04S HX 101
LAWRENCEVILLE* FAIR      89  77  68 CALM      29.98S HX 101
EMPORIA*       FAIR      88  75  66 W3        29.99S HX  97
$$

VAZ088>098-261600-
SOUTHEAST VIRGINIA

CITY           SKY/WX    TMP DP  RH WIND       PRES   REMARKS
NORFOLK        FAIR      90  75  61 W8        29.96S HX 100
VIRGINIA BEACH FAIR      95  75  52 W10       29.94S HX 107
NORFOLK NAVAL  FAIR      89  75  63 W9        29.97S HX  99
WEST POINT*    FAIR      90  75  61 NW3       29.97S HX  99
SALUDA*        FAIR      87  78  73 NW6       29.95S HX 100
NEWPORT NEWS   FAIR      88  77  69 VRB7      29.96S HX 100
LANGLEY AFB    MOSUNNY   89  77  67 W8        29.95S HX 102
FORT EUSTIS    FAIR      90  78  68 NW8       29.95R HX 104
WILLIAMSBURG*  FAIR      91  79  66 NW5       29.97S HX 107
HR EXEC AP*    FAIR      88  77  70 W6        29.98S HX 100
FRANKLIN*      FAIR      87  76  69 W5        29.98S HX  98
US460-WAKEFLD  FAIR      89  76  65 VRB5      29.97S HX 100
$$

VAZ020-022-025-037-045-261600-
WEST CENTRAL AND SOUTHWEST VIRGINIA

CITY           SKY/WX    TMP DP  RH WIND       PRES   REMARKS
STAUNTON*      FAIR      85  72  65 N5        30.06S
WAYNESBORO*    FAIR      86  70  58 NW3       30.06S
HOT SPRINGS VA NOT AVBL
LYNCHBURG      FAIR      88  72  58 VRB5      30.04S
DANVILLE       FAIR      88  75  65 W8        30.01S HX  97
SOUTH BOSTON*  FAIR      90  76  62 SW5       30.00S HX 101
MARTINSVILLE   FAIR      87  71  58 N6        30.06S
ROANOKE        FAIR      87  71  58 N6        30.07S
BLACKSBURG     FAIR      81  72  73 SW3       30.15S
DUBLIN*        FAIR      83  71  65 CALM      30.14R
MARION*        FAIR      82  72  71 W8        30.18S
HILLSVILLE*    FAIR      80  71  72 NW6       30.15S
RICHLANDS*     FAIR      79  70  74 W5        30.18S
WISE*          FAIR      81  63  54 SW7       30.18S
ABINGDON*      PTSUNNY   82  73  72 W7        30.15S
$$

MDZ021>025-VAZ099-100-261600-
SOUTHERN MARYLAND AND THE DELMARVA PENINSULA

CITY           SKY/WX    TMP DP  RH WIND       PRES   REMARKS
PATUXENT RIVER PTSUNNY   88  75  65 N7        29.96R HX  97
BAY BRIDGE APT MOSUNNY   84  75  74 NW5       29.96S
LEONARDTOWN    NOT AVBL
DOVER          MOSUNNY   87  74  66 NW8       29.94S HX  95
GEORGETOWN     MOSUNNY   88  73  61 NE9       29.96S HX  95
EASTON         PTSUNNY   88  79  74 NE6       29.99S HX 102
CAMBRIDGE      MOSUNNY   84  73  70 N6        29.95S
SALISBURY      MOSUNNY   86  75  69 NE8       29.95S HX  95
OCEAN CITY     SUNNY     86  76  71 E7        29.95S HX  96
WALLOPS ISLAND FAIR      86  78  77 MISG      29.96R HX  98
ACCOMACK*      FAIR      90  75  62 CALM      29.95S HX 100
$$

NCZ012>017-030>032-261600-
NORTH CENTRAL AND EASTERN NORTH CAROLINA

CITY           SKY/WX    TMP DP  RH WIND       PRES   REMARKS
ROANOKE RAPIDS FAIR      88  75  66 W7        29.98S HX  97
RALEIGH        PTSUNNY   88  74  63 SW7       30.01F HX  96
ELIZABETH CITY SUNNY     88  76  67 W9        29.97S HX  99
AHOSKIE*       SUNNY     86  77  74 CALM      29.98S HX  98
EDENTON*       SUNNY     89  73  59 W7        29.99S HX  96
CURRITUCK*     NOT AVBL
KILL DEVIL HLS SUNNY     90  74  58 W8        29.96F HX  98
MANTEO           N/A     87  77  72 W8        29.98S HX  98
CAPE HATTERAS  SUNNY     83  75  77 SW12G20   30.01S
TARBORO*       FAIR      88  77  68 SW7       30.00S HX 100
GOLDSBORO      NOT AVBL
WASHINGTON     SUNNY     87  76  69 SW12      30.00S HX  97
GREENVILLE     SUNNY     88  77  70 SW8       30.02S HX 100
NEW BERN       MOSUNNY   87  75  67 SW10      30.03S HX  96
WILMINGTON     MOSUNNY   87  73  62 W10       30.05S
$$

VAZ048-261600-
ELSEWHERE

CITY           SKY/WX    TMP DP  RH WIND       PRES   REMARKS
HARRISBURG PA  MOSUNNY   85  75  72 W7        29.96F
BALTIMORE      PTSUNNY   90  70  51 W7        29.95S HX  95
ANNAPOLIS      MOSUNNY   88  76  67 CALM      29.95S HX  99
ANDREWS AFB    FAIR      87  73  63 N6        29.96S
PHILADELPHIA   MOSUNNY   86  68  54 NW8       29.94F
GREENSBORO     CLOUDY    89  70  53 VRB3      30.03S
ROCKY MOUNT    SUNNY     88  76  67 SW6       30.00S HX  99
$$

VAZ100-261600-
MARINE

STATION/POSITION TIME  TEMP    WIND        PRES    WAVE   SWELL
                       AIR SEA DIR/SP/G            HT/PER HT/PER
                 (UTC) (F)     (DEG/KT/KT) (MB)    (FT/S) (FT/S)
BRANDYWINE LGT   1400   80     350/  7/  8   N/A
CAPE MAY NJ      1400   83 73  330/  6/  9 1013.8R
LEWES DE         1400   79 73  320/  2/  3 1014.2R
OCEAN-CITY-INLET 1400   79 78  100/  3/  4 1014.5R
WACHAPREAGUE VA  1400   90 86  310/  2/  7 1013.8R
THOMAS POINT MD  1500   82 83   30/  3/  4 1015.9R
GOOSES REEF MD   1500   83 85   20/  4/  6 1015.6R   1/ 2
COVE POINT MD    1400   81      10/  7/ 10 1014.9S
SOLOMONS ISLAND  1400   86 84  250/  4/  6   N/A
BISHOPS HEAD MD  1400   85 86   10/  5/ 10 1014.5R
PINEY POINT MD   1400          330/  6/  7   N/A
POTOMAC MD       1500   85 87   20/  8/ 12 1013.4R   0
CAMBRIDGE MD     1400   83 86  340/  2/  3 1013.5R
LEWISETTA VA     1400   84 85   10/  5/  8 1014.0R
RAPPAHANNOCK LGT 1400          320/ 11/ 13 1014.6R
STINGRAY PT      1500   86 86  330/  6/  8 1014.9R   1
YORK RVR RNG VA  1400   85     290/  9/ 10 1013.6R
YORKTOWN VA      1400   85 84  310/  7/  8 1013.9S
JAMESTOWN VA     1500   85 88  280/  6/  8   N/A     0
DOMINION TERM VA 1400   84     310/  9/ 10 1014.5R
KIPTOPEKE VA     1400      82  300/ 11/ 12   N/A
CHES BAY BRIDGE  1400   82 79  250/ 12/ 13 1014.1S
CAPE HENRY VA    1400   85     280/ 11/ 14   N/A
WILLOUBY STN VA  1400   83     280/ 10/ 12   N/A
CAPE HENRY BUOY  1412      70                N/A     2/ 5
1ST LANDING BUOY 1500   82 81  260/ 10/ 10 1014.0R
CAPE CHARLES BUO 1426      64                N/A     2/ 3
OFFSHORE WE BUOY 1421      80                N/A     3/ 5
64NM E OF VA BCH 1450   81 81  250/ 14/ 16 1014.2R   4/ 6   2/ 8
DUCK PIER NC     1400   83 60  250/ 13/ 17 1014.3F
44100 DUCK FRF   1405      74                N/A     2/ 4
44056 DUCK FRF   1411      64                N/A     1/ 8
OREGON INLET NC  1400   84 84  240/ 13/ 14 1015.3S
HATTERAS NC      1400   83 83  230/ 12/ 18 1015.9F
DIAMOND SHLS NC  1450   83 84  240/ 17/ 21 1016.3F   5/ 6   2/13
CAPE LOOKOUT NC  1500   85     250/ 17/ 20 1016.9R
$$




USA.gov is the U.S. government's official web portal to all federal, state and local government web resources and services.